Tracking 19562 objects as of 24-Mar-2019
HD Live streaming from Space Station
objects crossing your sky now

MOLNIYA 1-75

Track MOLNIYA 1-75 now!
MOLNIYA 1-75 is classified as:


NORAD ID: 19807
Int'l Code: 1989-014A
Perigee: 1,651.1 km
Apogee: 38,727.4 km
Inclination: 64.1 °
Period: 718.0 minutes
Semi major axis: 26560 km
RCS: 12.6191 m2 (large)
Launch date: February 15, 1989
Source: Commonwealth of Independent States (former USSR) (CIS)
Launch site: TYURATAM MISSILE AND SPACE COMPLEX (TTMTR)
aabbcc
Your satellite tracking list
Your tracking list is empty




NASA's NSSDC Master Catalog

Two Line Element Set (TLE):
1 19807U 89014A   19081.74145615 +.00000097 +00000-0 -12249-1 0  9995
2 19807 064.1444 066.4723 6979655 273.9760 015.7666 02.00564510220366
Source of the keplerian elements: AFSPC